Wind_Speed
28 28 28 28 28 27 27 27 27 27 27 27 27 26 26 26 25 24 24 24 24 25 25 24 24 23 22 21 21 20 20 20 20 20 20 20 21 21 22 22 23 23 23
29 29 29 29 29 29 29 29 29 29 29 29 29 29 28 28 27 26 26 26 26 26 26 25 25 24 23 22 22 21 20 20 20 20 21 21 22 22 23 23 24 24 24
31 31 31 31 31 32 32 32 32 32 32 31 32 31 31 30 30 28 27 27 28 27 27 27 27 26 25 24 23 22 22 21 21 21 22 22 23 23 23 24 25 25 25
34 34 34 35 35 36 36 35 35 35 35 35 35 35 34 33 32 31 30 29 29 29 29 29 29 28 27 26 25 24 24 23 23 23 24 24 24 24 24 25 25 26 26
37 38 38 38 39 39 39 39 39 39 39 39 39 38 37 36 36 35 33 32 31 31 31 31 31 30 30 29 28 27 26 26 26 26 26 26 26 27 27 27 27 28 28
40 41 41 41 42 42 42 43 43 43 43 43 43 42 41 40 39 38 37 35 34 34 33 33 33 33 32 32 31 30 30 29 30 30 29 29 30 30 30 30 30 30 30
43 44 44 44 45 45 45 46 46 46 46 47 47 46 46 44 42 41 40 39 38 37 36 35 35 35 35 34 34 33 33 33 32 33 33 33 33 33 33 33 34 34 34
46 47 47 48 48 48 48 49 49 50 50 50 51 51 50 48 46 45 44 43 42 41 39 38 38 38 37 37 37 36 36 36 36 36 36 36 36 36 37 37 37 38 38
47 49 50 50 51 52 52 52 52 53 54 54 54 55 54 52 51 49 48 47 46 44 43 42 42 41 41 40 40 40 39 39 38 39 39 39 39 40 40 41 41 41 42
48 49 51 52 54 55 55 55 55 56 57 57 57 57 57 57 55 52 51 50 49 47 46 46 45 45 44 42 42 43 43 42 42 42 43 43 43 43 44 44 45 45 45
48 50 51 53 54 56 58 58 59 59 60 60 60 59 60 60 58 57 55 53 52 51 50 49 48 47 47 46 45 45 46 46 45 45 46 46 47 46 47 47 48 48 49
49 50 51 53 55 57 59 60 62 63 63 63 63 63 62 62 61 60 59 57 55 53 53 51 51 50 49 49 48 48 48 47 47 47 48 49 50 51 51 51 52 52 52
48 50 51 53 55 58 60 62 64 65 66 66 66 65 64 63 63 62 61 59 57 56 55 54 52 52 51 51 50 49 49 49 50 51 52 53 54 55 55 55 55 55 55
48 49 51 53 55 58 61 63 64 66 67 67 67 66 65 64 63 62 61 61 60 57 56 55 54 54 52 51 50 50 50 51 53 54 55 56 57 58 58 58 58 57 57
46 48 50 53 55 58 61 63 64 64 65 66 66 66 65 64 62 61 60 60 59 58 57 57 55 53 53 53 53 53 53 54 55 57 58 60 60 60 59 60 60 61 61
45 48 51 53 55 57 59 60 61 61 62 62 63 63 63 62 61 60 59 58 58 58 58 57 56 56 55 56 56 56 57 57 59 59 60 62 62 63 63 63 63 64 64
44 46 49 50 51 53 54 55 56 56 56 57 57 58 59 58 58 58 58 58 58 58 58 57 57 57 57 58 58 59 60 60 62 63 63 64 64 64 65 65 65 64 64
42 44 46 46 47 48 49 50 50 49 49 49 49 50 51 53 53 54 55 55 56 57 57 57 58 59 59 60 61 62 61 62 63 64 65 65 66 66 66 65 64 64 65
40 41 42 43 43 45 45 44 43 42 42 42 42 43 44 46 48 49 51 51 52 53 55 55 56 58 59 60 60 61 61 62 64 65 66 66 66 65 64 64 64 65 65
38 38 39 39 39 40 40 38 37 36 35 35 34 36 37 39 40 42 44 46 46 48 50 51 53 55 56 58 59 61 62 63 63 64 63 63 64 64 64 64 65 66 67
35 35 35 35 35 35 35 32 31 30 29 28 28 29 31 32 34 36 38 40 41 43 46 48 50 52 54 55 57 58 59 59 60 61 62 63 63 64 65 66 67 67 67
32 32 31 31 31 31 30 28 27 25 25 24 23 23 24 25 27 29 32 34 36 40 43 45 47 49 51 52 53 55 56 58 60 61 62 63 63 64 65 66 66 66 67
29 29 28 27 27 27 26 26 25 23 21 20 19 19 20 21 24 26 28 30 33 36 38 41 43 46 48 49 52 54 56 58 59 60 60 60 62 62 63 64 64 63 62
27 26 25 25 24 23 23 23 22 20 19 17 17 17 16 18 19 21 24 26 30 33 36 39 42 45 48 50 52 54 56 57 59 60 59 59 60 60 60 60 59 59 58
25 24 24 23 22 22 21 21 20 19 18 17 16 16 17 18 20 21 24 27 30 33 36 39 42 45 48 51 53 55 56 57 58 59 59 58 57 55 54 55 55 54 52
23 22 22 21 20 20 20 20 19 19 18 18 18 18 19 20 22 24 26 29 32 35 38 41 44 48 50 52 54 55 56 57 58 58 58 55 53 51 48 48 48 47 46
Wind_Direction
292 292 291 290 289 287 285 284 284 285 286 286 286 286 287 287 287 287 286 287 288 288 289 291 292 293 294 296 299 302 303 303 301 299 296 294 292 290 289 287 286 285 284
291 291 291 290 289 287 285 284 284 285 285 286 286 286 286 285 285 284 284 285 286 286 287 288 289 290 291 293 296 298 299 300 300 299 296 294 292 291 289 287 285 284 283
290 289 289 288 287 285 285 284 284 284 284 284 285 285 286 285 284 283 282 283 284 284 285 286 286 287 288 290 292 295 296 297 298 297 296 294 293 291 289 288 286 285 283
288 288 287 286 285 284 284 284 284 284 283 282 282 283 284 284 283 283 281 280 281 282 283 283 284 284 284 286 289 291 293 294 295 295 294 293 291 290 288 288 286 284 283
287 287 287 286 286 285 285 284 283 282 282 282 281 281 281 282 281 281 280 279 278 278 280 281 281 281 282 284 285 287 289 291 292 292 291 290 289 288 287 286 285 283 282
287 287 287 286 286 285 284 283 282 281 281 281 280 279 279 278 278 279 278 277 276 276 277 278 279 279 280 281 282 284 285 288 289 290 289 288 287 286 285 285 284 283 281
286 285 285 284 284 283 282 281 281 280 280 279 278 278 277 276 277 277 276 275 274 274 275 275 276 277 278 279 280 281 282 284 286 287 287 286 285 284 283 283 282 281 280
284 284 284 284 283 282 281 280 279 278 278 277 277 276 276 276 276 275 274 274 273 273 273 273 274 275 276 277 278 278 279 281 282 283 284 284 283 282 282 281 281 280 279
281 282 283 283 282 282 281 279 278 277 277 276 275 276 276 275 274 273 273 273 272 273 273 273 273 274 274 275 276 277 277 279 280 282 282 283 282 281 280 280 280 279 278
280 280 281 281 281 281 281 279 278 277 276 275 274 274 274 274 273 273 273 273 273 273 273 273 274 274 274 274 275 275 276 277 278 280 281 281 282 281 281 281 280 279 278
279 279 280 280 280 280 280 279 278 276 275 274 273 272 272 272 272 273 273 272 272 272 273 273 274 274 274 274 274 274 276 276 277 279 280 281 281 281 281 281 280 279 278
280 280 281 281 281 280 280 279 278 277 275 274 272 271 270 270 270 271 271 271 271 271 272 273 274 274 275 275 274 274 276 277 278 279 280 281 281 281 281 281 280 279 278
282 283 282 282 282 281 280 279 278 277 275 273 271 270 268 267 267 268 269 269 270 270 271 272 273 275 276 276 276 277 277 278 278 280 282 282 282 282 281 281 281 279 278
285 285 286 285 284 283 282 281 279 277 274 272 270 269 267 266 265 265 266 267 268 269 270 270 273 275 277 278 278 279 277 278 279 281 282 282 282 282 281 281 281 280 279
288 289 289 289 288 287 285 283 281 278 275 272 270 267 266 265 264 264 263 264 266 267 269 269 272 274 276 277 280 280 280 281 281 282 282 282 282 283 282 282 281 280 279
291 292 293 293 292 291 289 287 284 281 278 274 270 267 264 262 261 261 261 261 262 264 267 268 271 275 276 278 279 279 281 282 283 284 283 283 283 283 283 282 282 281 280
295 297 297 298 298 296 295 292 289 285 281 276 272 267 264 261 259 259 259 259 260 262 265 268 271 273 274 277 279 280 282 283 283 284 283 284 284 284 284 284 283 282 281
299 301 301 302 303 302 300 297 293 288 284 279 274 269 265 261 258 257 257 257 259 261 264 266 269 272 274 277 279 282 282 282 283 283 284 284 285 285 285 285 283 282 282
302 304 305 307 308 308 305 302 297 293 287 283 277 270 265 261 258 257 256 256 258 261 264 267 270 273 275 277 279 280 282 283 284 284 284 285 286 286 285 285 285 284 283
304 307 310 311 312 313 312 307 302 299 292 287 280 273 267 261 258 256 256 257 259 262 266 268 271 273 276 277 279 280 282 283 285 286 287 288 289 288 287 287 286 285 285
307 310 312 314 316 317 317 314 308 305 299 291 285 278 272 265 260 258 257 258 261 263 266 268 271 275 277 279 280 282 284 286 288 288 289 290 290 289 289 288 288 287 286
310 313 315 317 318 320 321 319 316 310 305 297 290 284 276 270 267 262 260 261 263 266 268 271 274 278 280 283 284 286 287 288 289 289 290 291 291 291 290 290 289 288 288
311 314 317 319 321 323 324 324 322 317 313 307 298 290 282 277 272 267 266 267 270 273 275 277 280 282 285 286 287 288 289 291 291 292 292 293 293 293 292 291 290 289 289
310 314 317 321 323 325 328 330 331 328 325 318 310 302 295 288 282 279 278 277 278 280 281 282 284 287 289 290 291 292 293 294 294 294 294 294 294 294 293 292 291 291 290
311 314 315 319 322 326 329 331 333 333 330 325 319 312 305 296 292 290 289 288 288 289 289 289 291 293 294 295 295 295 295 295 295 295 295 295 294 294 294 293 293 292 292
311 314 317 320 323 326 328 329 329 328 326 324 320 316 311 307 303 300 298 296 295 295 295 295 296 297 298 298 298 297 297 297 296 296 296 296 295 294 293 293 293 294 293
Height
5849 5849 5849 5849 5848 5848 5847 5846 5845 5844 5844 5843 5842 5841 5840 5839 5839 5839 5837 5836 5835 5834 5833 5832 5831 5830 5829 5827 5826 5825 5824 5822 5821 5820 5820 5819 5819 5818 5818 5817 5817 5817 5817
5844 5843 5843 5843 5842 5842 5841 5840 5840 5839 5838 5837 5836 5836 5835 5834 5833 5833 5832 5831 5830 5829 5828 5827 5826 5825 5823 5822 5821 5820 5819 5818 5817 5816 5815 5814 5813 5813 5812 5812 5811 5811 5811
5838 5837 5837 5837 5836 5835 5834 5834 5833 5833 5832 5831 5830 5829 5829 5828 5827 5827 5827 5825 5824 5823 5822 5821 5820 5819 5818 5817 5816 5815 5814 5812 5811 5811 5810 5809 5808 5807 5807 5806 5806 5805 5805
5831 5831 5831 5830 5829 5828 5828 5827 5826 5826 5825 5824 5823 5823 5822 5821 5820 5820 5820 5820 5818 5817 5816 5815 5814 5813 5812 5811 5810 5809 5808 5807 5806 5805 5804 5803 5802 5801 5800 5800 5799 5799 5799
5824 5824 5823 5823 5821 5821 5820 5819 5819 5817 5817 5816 5815 5815 5814 5814 5813 5812 5812 5812 5812 5810 5809 5808 5808 5807 5806 5805 5804 5803 5802 5801 5800 5798 5797 5796 5795 5794 5794 5793 5792 5792 5792
5817 5816 5815 5814 5813 5813 5812 5810 5809 5809 5808 5807 5806 5806 5806 5805 5804 5804 5804 5803 5803 5803 5802 5801 5800 5799 5799 5798 5797 5796 5794 5793 5792 5791 5790 5789 5788 5787 5786 5786 5785 5784 5784
5808 5806 5806 5805 5804 5803 5802 5801 5800 5799 5798 5797 5796 5795 5795 5795 5795 5795 5794 5794 5793 5793 5793 5793 5792 5791 5790 5789 5789 5788 5786 5785 5784 5783 5782 5781 5780 5779 5778 5778 5777 5776 5775
5798 5797 5796 5795 5793 5792 5791 5790 5789 5788 5787 5786 5785 5783 5784 5785 5785 5784 5784 5783 5783 5783 5783 5783 5783 5782 5781 5780 5780 5778 5777 5776 5775 5774 5773 5772 5771 5770 5769 5768 5768 5767 5766
5789 5787 5785 5783 5782 5781 5780 5779 5777 5776 5775 5774 5773 5772 5772 5773 5772 5773 5773 5772 5772 5773 5772 5772 5772 5772 5772 5771 5769 5768 5767 5766 5765 5764 5763 5762 5761 5760 5759 5758 5758 5757 5756
5779 5777 5775 5772 5770 5768 5767 5766 5764 5763 5761 5761 5760 5760 5759 5758 5759 5760 5761 5761 5761 5761 5761 5761 5761 5761 5760 5760 5759 5757 5756 5755 5754 5753 5752 5751 5750 5749 5748 5747 5746 5746 5745
5769 5767 5764 5762 5759 5756 5754 5752 5750 5749 5747 5746 5746 5746 5744 5743 5744 5746 5747 5748 5748 5748 5749 5749 5749 5748 5748 5748 5747 5745 5744 5743 5742 5741 5740 5739 5738 5737 5736 5735 5734 5733 5732
5758 5756 5753 5750 5747 5744 5741 5738 5736 5733 5732 5731 5730 5730 5730 5730 5730 5731 5731 5733 5734 5735 5735 5736 5736 5735 5735 5734 5734 5732 5731 5730 5729 5728 5727 5726 5725 5724 5722 5721 5720 5719 5718
5747 5744 5742 5739 5735 5732 5728 5724 5721 5718 5716 5714 5713 5713 5714 5715 5715 5715 5716 5717 5719 5721 5721 5722 5722 5722 5721 5720 5720 5719 5718 5717 5715 5714 5713 5712 5711 5709 5708 5706 5705 5704 5703
5736 5732 5729 5726 5722 5718 5713 5709 5705 5702 5699 5697 5696 5695 5696 5698 5699 5700 5701 5702 5703 5705 5706 5707 5708 5707 5707 5706 5705 5705 5704 5703 5701 5700 5698 5697 5695 5694 5693 5691 5689 5688 5687
5724 5720 5716 5712 5708 5702 5697 5692 5687 5683 5680 5678 5678 5677 5677 5680 5681 5683 5685 5687 5688 5690 5692 5692 5693 5693 5692 5692 5691 5690 5689 5688 5686 5684 5682 5681 5679 5678 5676 5674 5673 5671 5670
5712 5708 5703 5698 5692 5686 5680 5674 5668 5664 5661 5659 5658 5658 5659 5661 5664 5666 5668 5671 5673 5675 5676 5678 5678 5678 5677 5677 5676 5676 5674 5672 5671 5669 5666 5664 5662 5661 5659 5657 5655 5653 5651
5700 5695 5689 5683 5677 5670 5663 5656 5651 5646 5643 5640 5639 5640 5642 5644 5647 5650 5652 5655 5658 5660 5662 5663 5663 5664 5663 5662 5662 5660 5659 5657 5655 5652 5650 5647 5645 5643 5640 5638 5635 5633 5631
5688 5683 5677 5670 5663 5656 5649 5642 5635 5630 5627 5624 5623 5623 5625 5627 5630 5634 5637 5640 5643 5646 5648 5649 5650 5649 5649 5648 5647 5645 5643 5640 5638 5635 5632 5630 5627 5624 5622 5619 5616 5614 5611
5678 5672 5666 5659 5652 5644 5636 5630 5623 5618 5614 5611 5610 5610 5611 5613 5616 5620 5623 5627 5630 5632 5634 5636 5636 5636 5634 5633 5631 5629 5627 5624 5621 5618 5615 5612 5609 5606 5602 5599 5596 5593 5591
5668 5662 5656 5649 5642 5635 5627 5620 5614 5609 5605 5602 5600 5600 5600 5602 5605 5608 5612 5615 5618 5621 5622 5623 5623 5622 5620 5619 5617 5614 5611 5608 5604 5601 5597 5594 5590 5586 5582 5579 5575 5572 5569
5659 5654 5648 5642 5635 5628 5621 5614 5608 5603 5598 5595 5593 5592 5592 5594 5596 5599 5602 5605 5608 5609 5610 5611 5610 5609 5607 5605 5602 5599 5596 5591 5587 5584 5580 5575 5571 5567 5561 5557 5553 5550 5547
5652 5647 5641 5635 5629 5622 5616 5609 5604 5599 5594 5591 5589 5588 5587 5588 5590 5592 5595 5596 5598 5599 5600 5600 5599 5597 5594 5592 5588 5585 5581 5577 5572 5567 5563 5557 5552 5547 5541 5536 5531 5527 5524
5645 5640 5635 5629 5624 5618 5612 5606 5601 5596 5592 5589 5586 5585 5585 5585 5586 5587 5588 5589 5590 5590 5590 5589 5587 5585 5582 5579 5575 5571 5566 5560 5555 5549 5546 5539 5532 5527 5520 5514 5510 5506 5502
5639 5635 5630 5625 5619 5614 5609 5604 5599 5594 5590 5588 5585 5584 5583 5582 5582 5583 5583 5583 5582 5582 5581 5579 5576 5573 5569 5565 5560 5555 5550 5544 5537 5531 5528 5523 5515 5509 5502 5494 5489 5486 5482
5634 5629 5625 5620 5615 5611 5606 5602 5597 5593 5590 5587 5584 5582 5581 5580 5579 5578 5578 5577 5575 5573 5571 5568 5564 5560 5556 5551 5545 5539 5533 5528 5521 5514 5509 5506 5499 5493 5486 5478 5472 5468 5464
5628 5624 5620 5616 5611 5607 5603 5599 5595 5592 5588 5585 5583 5580 5578 5576 5574 5573 5571 5569 5567 5564 5561 5557 5552 5547 5541 5535 5529 5524 5517 5511 5504 5497 5491 5488 5482 5477 5473 5465 5458 5453 5449